DELTA 1 DEB

Satellite information

Favourite Embed

Satellite Type and Status

DEBRISIN ORBIT

Key statistics

Satellite DELTA 1 DEB at a glance.

Uptime

17813

Days in orbit

Revolutions

≈ 13.7

Per day

Orbit

SSO

Sun Synchronous Orbit

Inclination

101.7

Latest

Satellite identification and parameters

Extended collection of information and parameters for DELTA 1 DEB.

Object identification

Identified? True

Debris? True

Object name: DELTA 1 DEB

International designator: 1976-077AX

Object number (NORAD): 10750

Object ID (CCSDS): 10750

Country: UNITED STATES OF AMERICA (US)

Current information (Y/N): Y

RCS size: SMALL

Orbital parameters

Period: 105.104 minutes

Inclination: 101.6568 deg

SMA: 7377.464 km

Apoapsis: 1287.985 km

Periapsis: 710.673 km

RAAN: 352.7344 deg

Eccentricy: 0.0391267

Argument of periapsis: 35.357 deg

Mean anomaly: 327.2855 deg

Mean motion: 13.70067934 rev/day

Mean motion (dot): 0.00009173 rev/day2

B* drag term: 0.0061044 1/REarth

Two-line elements (TLE)

Creation date: May 6, 2025, 3:54 a.m.

Reference frame: TEME

Reference center: EARTH

Epoch: May 5, 2025, 9:16 p.m. UTC

TLE line 0: 0 DELTA 1 DEB

TLE line 1: 1 10750U 76077AX 25125.88666996 .00009173 00000-0 61044-2 0 9990

TLE line 2: 2 10750 101.6568 352.7344 0391267 35.3570 327.2855 13.70067934309735

Live tracking on map

Real-time ground track for satellite DELTA 1 DEB.

In-orbit conjunctions

A list of the most updated potential collisions computed for object DELTA 1 DEB.

Target Orbit TCA Probability of collision Miss distance Type
SL-8 R/B LEO 2024-07-17 09:33:27 0.0001478397 473.0 (m) ROCKET BODY

Associated space launch

Meteorological satellite using radiometric imaging

DELTA 1 DEB was lifted into orbit during the mission ‘Delta 2310 | NOAA 5’, on board a Delta 2310 space rocket.

The launch took place on July 29, 1976, 5:07 p.m. from Space Launch Complex 2W.

For more information about the launch, click the button.

Launch to space Delta 2310 | NOAA 5
Delta 2310 | NOAA 5

Agency: N/A

Status: Launch Successful

Launch date: July 29, 1976, 5:07 p.m. UTC

Rocket: Delta 2310

Launch pad: Space Launch Complex 2W

Location: Vandenberg SFB, CA, USA

...

Latest news about this satellite

There are no fresh news available about this satellite. Check back as we update our databases every day.


Newsletter sign-up

Weekly statistics, charts and insights to help you stay on top of the space industry.